Main page
METAR-TAF:

METAR-TAF

Airports :

Jam Airport

Bandar Kangan, Iran

latitude: 27-49-14N, longitude: 52-21-08E, elevation: 662 m

Current weather observation

The report was made 1 hour and 6 minutes ago, at 04:00 UTC
Wind 2 kt from the South/Southwest
Temperature 12°C
Humidity 71%
Pressure 1024 hPa
Visibility: 7000 m

METAR: OIBJ 090400Z 20002KT 7000 NSC 12/07 Q1024

Time: 08:36 (05:06 UTC)


TAF: missing

Weather observations and forecasts of more than 4000 airports (METAR and TAF reports).

The available stations are represented by yellow and red dots on the map.

Hover mouse over dot to see the name of the station.

Then click to see weather observations and forecasts.

To change the map : click on the green buttons with a black cross to zoom in, on the green button with a dash to zoom out, or on the green arrows for adjacent maps.


METAR-TAF: